Year,Month,Day,Hour,Minute,Value (Times are PST for temperature in C)
2016,04,08,00,00,12.00
2016,04,08,00,01,12.00
2016,04,08,00,02,11.90
2016,04,08,00,03,11.90
2016,04,08,00,04,11.90
2016,04,08,00,05,11.80
2016,04,08,00,06,11.80
2016,04,08,00,07,11.80
2016,04,08,00,08,11.80
2016,04,08,00,09,11.80
2016,04,08,00,10,11.70
2016,04,08,00,11,11.70
2016,04,08,00,12,11.70
2016,04,08,00,13,11.70
2016,04,08,00,14,11.60
2016,04,08,00,15,11.60
2016,04,08,00,16,11.60
2016,04,08,00,17,11.60
2016,04,08,00,18,11.60
2016,04,08,00,19,11.50
2016,04,08,00,20,11.40
2016,04,08,00,21,11.40
2016,04,08,00,22,11.40
2016,04,08,00,23,11.40
2016,04,08,00,24,11.30
2016,04,08,00,25,11.30
2016,04,08,00,26,11.30
2016,04,08,00,27,11.30
2016,04,08,00,28,11.20
2016,04,08,00,29,11.20
2016,04,08,00,30,11.20
2016,04,08,00,31,11.10
2016,04,08,00,32,11.10
2016,04,08,00,33,11.10
2016,04,08,00,34,11.10
2016,04,08,00,35,11.10
2016,04,08,00,36,11.10
2016,04,08,00,37,10.90
2016,04,08,00,38,10.90
2016,04,08,00,39,10.90
2016,04,08,00,40,10.90
2016,04,08,00,41,10.90
2016,04,08,00,42,10.80
2016,04,08,00,43,10.80
2016,04,08,00,44,10.70
2016,04,08,00,45,10.70
2016,04,08,00,46,10.70
2016,04,08,00,47,10.70
2016,04,08,00,48,10.60
2016,04,08,00,49,10.60
2016,04,08,00,50,10.60
2016,04,08,00,51,10.60
2016,04,08,00,52,10.60
2016,04,08,00,53,10.60
2016,04,08,00,54,10.60
2016,04,08,00,55,10.50
2016,04,08,00,56,10.40
2016,04,08,00,57,10.40
2016,04,08,00,58,10.40
2016,04,08,00,59,10.40
2016,04,08,01,00,10.40
2016,04,08,01,01,10.40
2016,04,08,01,02,10.40
2016,04,08,01,03,10.40
2016,04,08,01,04,10.30
2016,04,08,01,05,10.30
2016,04,08,01,06,10.30
2016,04,08,01,07,10.30
2016,04,08,01,08,10.30
2016,04,08,01,09,10.30
2016,04,08,01,10,10.30
2016,04,08,01,11,10.30
2016,04,08,01,12,10.20
2016,04,08,01,13,10.20
2016,04,08,01,14,10.20
2016,04,08,01,15,10.20
2016,04,08,01,16,10.20
2016,04,08,01,17,10.20
2016,04,08,01,18,10.20
2016,04,08,01,19,10.20
2016,04,08,01,20,10.20
2016,04,08,01,21,10.20
2016,04,08,01,22,10.20
2016,04,08,01,23,10.20
2016,04,08,01,24,10.10
2016,04,08,01,25,10.10
2016,04,08,01,26,10.10
2016,04,08,01,27,10.10
2016,04,08,01,28,10.10
2016,04,08,01,29,10.10
2016,04,08,01,30,10.10
2016,04,08,01,31,10.10
2016,04,08,01,32,10.00
2016,04,08,01,33,9.90
2016,04,08,01,34,9.90
2016,04,08,01,35,9.90
2016,04,08,01,36,9.90
2016,04,08,01,37,9.90
2016,04,08,01,38,9.90
2016,04,08,01,39,9.90
2016,04,08,01,40,9.90
2016,04,08,01,41,9.90
2016,04,08,01,42,9.90
2016,04,08,01,43,9.90
2016,04,08,01,44,9.90
2016,04,08,01,45,9.90
2016,04,08,01,46,9.90
2016,04,08,01,47,9.90
2016,04,08,01,48,9.90
2016,04,08,01,49,9.90
2016,04,08,01,50,9.90
2016,04,08,01,51,9.90
2016,04,08,01,52,9.80
2016,04,08,01,53,9.80
2016,04,08,01,54,9.80
2016,04,08,01,55,9.80
2016,04,08,01,56,9.80
2016,04,08,01,57,9.80
2016,04,08,01,58,9.80
2016,04,08,01,59,9.80
2016,04,08,02,00,9.80
2016,04,08,02,01,9.70
2016,04,08,02,02,9.70
2016,04,08,02,03,9.70
2016,04,08,02,04,9.70
2016,04,08,02,05,9.70
2016,04,08,02,06,9.70
2016,04,08,02,07,9.70
2016,04,08,02,08,9.70
2016,04,08,02,09,9.70
2016,04,08,02,10,9.70
2016,04,08,02,11,9.70
2016,04,08,02,12,9.70
2016,04,08,02,13,9.70
2016,04,08,02,14,9.70
2016,04,08,02,15,9.70
2016,04,08,02,16,9.70
2016,04,08,02,17,9.70
2016,04,08,02,18,9.70
2016,04,08,02,19,9.70
2016,04,08,02,20,9.60
2016,04,08,02,21,9.60
2016,04,08,02,22,9.60
2016,04,08,02,23,9.50
2016,04,08,02,24,9.50
2016,04,08,02,25,9.50
2016,04,08,02,26,9.50
2016,04,08,02,27,9.50
2016,04,08,02,28,9.50
2016,04,08,02,29,9.50
2016,04,08,02,30,9.50
2016,04,08,02,31,9.50
2016,04,08,02,32,9.50
2016,04,08,02,33,9.50
2016,04,08,02,34,9.40
2016,04,08,02,35,9.40
2016,04,08,02,36,9.40
2016,04,08,02,37,9.40
2016,04,08,02,38,9.40
2016,04,08,02,39,9.40
2016,04,08,02,40,9.40
2016,04,08,02,41,9.40
2016,04,08,02,42,9.40
2016,04,08,02,43,9.40
2016,04,08,02,44,9.40
2016,04,08,02,45,9.40
2016,04,08,02,46,9.40
2016,04,08,02,47,9.40
2016,04,08,02,48,9.40
2016,04,08,02,49,9.40
2016,04,08,02,50,9.40
2016,04,08,02,51,9.40
2016,04,08,02,52,9.40
2016,04,08,02,53,9.40
2016,04,08,02,54,9.40
2016,04,08,02,55,9.30
2016,04,08,02,56,9.30
2016,04,08,02,57,9.30
2016,04,08,02,58,9.30
2016,04,08,02,59,9.30
2016,04,08,03,00,9.30
2016,04,08,03,01,9.20
2016,04,08,03,02,9.20
2016,04,08,03,03,9.20
2016,04,08,03,04,9.20
2016,04,08,03,05,9.20
2016,04,08,03,06,9.20
2016,04,08,03,07,9.20
2016,04,08,03,08,9.20
2016,04,08,03,09,9.20
2016,04,08,03,10,9.10
2016,04,08,03,11,9.10
2016,04,08,03,12,9.10
2016,04,08,03,13,9.10
2016,04,08,03,14,9.10
2016,04,08,03,15,9.10
2016,04,08,03,16,9.10
2016,04,08,03,17,9.20
2016,04,08,03,18,9.20
2016,04,08,03,19,9.20
2016,04,08,03,20,9.20
2016,04,08,03,21,9.20
2016,04,08,03,22,9.20
2016,04,08,03,23,9.20
2016,04,08,03,24,9.20
2016,04,08,03,25,9.20
2016,04,08,03,26,9.10
2016,04,08,03,27,9.10
2016,04,08,03,28,9.10
2016,04,08,03,29,9.10
2016,04,08,03,30,9.10
2016,04,08,03,31,9.00
2016,04,08,03,32,9.00
2016,04,08,03,33,9.00
2016,04,08,03,34,9.00
2016,04,08,03,35,9.00
2016,04,08,03,36,9.00
2016,04,08,03,37,9.00
2016,04,08,03,38,9.00
2016,04,08,03,39,9.00
2016,04,08,03,40,9.00
2016,04,08,03,41,8.90
2016,04,08,03,42,8.90
2016,04,08,03,43,8.90
2016,04,08,03,44,8.90
2016,04,08,03,45,8.90
2016,04,08,03,46,8.90
2016,04,08,03,47,8.90
2016,04,08,03,48,8.90
2016,04,08,03,49,8.80
2016,04,08,03,50,8.80
2016,04,08,03,51,8.80
2016,04,08,03,52,8.80
2016,04,08,03,53,8.80
2016,04,08,03,54,8.80
2016,04,08,03,55,8.80
2016,04,08,03,56,8.70
2016,04,08,03,57,8.70
2016,04,08,03,58,8.70
2016,04,08,03,59,8.70
2016,04,08,04,00,8.70
2016,04,08,04,01,8.70
2016,04,08,04,02,8.70
2016,04,08,04,03,8.70
2016,04,08,04,04,8.70
2016,04,08,04,05,8.70
2016,04,08,04,06,8.70
2016,04,08,04,07,8.70
2016,04,08,04,08,8.70
2016,04,08,04,09,8.70
2016,04,08,04,10,8.70
2016,04,08,04,11,8.70
2016,04,08,04,12,8.70
2016,04,08,04,13,8.60
2016,04,08,04,14,8.60
2016,04,08,04,15,8.60
2016,04,08,04,16,8.50
2016,04,08,04,17,8.50
2016,04,08,04,18,8.50
2016,04,08,04,19,8.40
2016,04,08,04,20,8.40
2016,04,08,04,21,8.40
2016,04,08,04,22,8.30
2016,04,08,04,23,8.30
2016,04,08,04,24,8.30
2016,04,08,04,25,8.30
2016,04,08,04,26,8.20
2016,04,08,04,27,8.20
2016,04,08,04,28,8.20
2016,04,08,04,29,8.20
2016,04,08,04,30,8.20
2016,04,08,04,31,8.20
2016,04,08,04,32,8.20
2016,04,08,04,33,8.20
2016,04,08,04,34,8.10
2016,04,08,04,35,8.10
2016,04,08,04,36,8.10
2016,04,08,04,37,8.10
2016,04,08,04,38,8.10
2016,04,08,04,39,8.00
2016,04,08,04,40,8.00
2016,04,08,04,41,8.00
2016,04,08,04,42,8.00
2016,04,08,04,43,8.00
2016,04,08,04,44,8.00
2016,04,08,04,45,8.00
2016,04,08,04,46,8.00
2016,04,08,04,47,8.00
2016,04,08,04,48,7.90
2016,04,08,04,49,7.90
2016,04,08,04,50,7.90
2016,04,08,04,51,7.90
2016,04,08,04,52,7.80
2016,04,08,04,53,7.80
2016,04,08,04,54,7.80
2016,04,08,04,55,7.80
2016,04,08,04,56,7.80
2016,04,08,04,57,7.80
2016,04,08,04,58,7.80
2016,04,08,04,59,7.80
2016,04,08,05,00,7.80
2016,04,08,05,01,7.80
2016,04,08,05,02,7.80
2016,04,08,05,03,7.80
2016,04,08,05,04,7.80
2016,04,08,05,05,7.80
2016,04,08,05,06,7.80
2016,04,08,05,07,7.80
2016,04,08,05,08,7.90
2016,04,08,05,09,7.90
2016,04,08,05,10,7.90
2016,04,08,05,11,7.80
2016,04,08,05,12,7.80
2016,04,08,05,13,7.80
2016,04,08,05,14,7.80
2016,04,08,05,15,7.80
2016,04,08,05,16,7.80
2016,04,08,05,17,7.80
2016,04,08,05,18,7.80
2016,04,08,05,19,7.70
2016,04,08,05,20,7.70
2016,04,08,05,21,7.70
2016,04,08,05,22,7.70
2016,04,08,05,23,7.70
2016,04,08,05,24,7.70
2016,04,08,05,25,7.70
2016,04,08,05,26,7.70
2016,04,08,05,27,7.70
2016,04,08,05,28,7.70
2016,04,08,05,29,7.70
2016,04,08,05,30,7.70
2016,04,08,05,31,7.70
2016,04,08,05,32,7.70
2016,04,08,05,33,7.70
2016,04,08,05,34,7.70
2016,04,08,05,35,7.70
2016,04,08,05,36,7.70
2016,04,08,05,37,7.70
2016,04,08,05,38,7.70
2016,04,08,05,39,7.70
2016,04,08,05,40,7.70
2016,04,08,05,41,7.70
2016,04,08,05,42,7.70
2016,04,08,05,43,7.70
2016,04,08,05,44,7.70
2016,04,08,05,45,7.60
2016,04,08,05,46,7.60
2016,04,08,05,47,7.60
2016,04,08,05,48,7.60
2016,04,08,05,49,7.60
2016,04,08,05,50,7.60
2016,04,08,05,51,7.60
2016,04,08,05,52,7.60
2016,04,08,05,53,7.60
2016,04,08,05,54,7.60
2016,04,08,05,55,7.50
2016,04,08,05,56,7.50
2016,04,08,05,57,7.50
2016,04,08,05,58,7.50
2016,04,08,05,59,7.50
2016,04,08,06,00,7.50
2016,04,08,06,01,7.50
2016,04,08,06,02,7.50
2016,04,08,06,03,7.60
2016,04,08,06,04,7.60
2016,04,08,06,05,7.60
2016,04,08,06,06,7.60
2016,04,08,06,07,7.60
2016,04,08,06,08,7.70
2016,04,08,06,09,7.70
2016,04,08,06,10,7.70
2016,04,08,06,11,7.70
2016,04,08,06,12,7.70
2016,04,08,06,13,7.70
2016,04,08,06,14,7.60
2016,04,08,06,15,7.60
2016,04,08,06,16,7.60
2016,04,08,06,17,7.60
2016,04,08,06,18,7.60
2016,04,08,06,19,7.50
2016,04,08,06,20,7.50
2016,04,08,06,21,7.50
2016,04,08,06,22,7.50
2016,04,08,06,23,7.50
2016,04,08,06,24,7.50
2016,04,08,06,25,7.40
2016,04,08,06,26,7.40
2016,04,08,06,27,7.40
2016,04,08,06,28,7.40
2016,04,08,06,29,7.40
2016,04,08,06,30,7.40
2016,04,08,06,31,7.40
2016,04,08,06,32,7.40
2016,04,08,06,33,7.40
2016,04,08,06,34,7.40
2016,04,08,06,35,7.40
2016,04,08,06,36,7.40
2016,04,08,06,37,7.40
2016,04,08,06,38,7.40
2016,04,08,06,39,7.50
2016,04,08,06,40,7.40
2016,04,08,06,41,7.40
2016,04,08,06,42,7.40
2016,04,08,06,43,7.40
2016,04,08,06,44,7.40
2016,04,08,06,45,7.40
2016,04,08,06,46,7.40
2016,04,08,06,47,7.40
2016,04,08,06,48,7.40
2016,04,08,06,49,7.40
2016,04,08,06,50,7.40
2016,04,08,06,51,7.40
2016,04,08,06,52,7.40
2016,04,08,06,53,7.40
2016,04,08,06,54,7.40
2016,04,08,06,55,7.40
2016,04,08,06,56,7.40
2016,04,08,06,57,7.40
2016,04,08,06,58,7.40
2016,04,08,06,59,7.40
2016,04,08,07,00,7.40
2016,04,08,07,01,7.40
2016,04,08,07,02,7.50
2016,04,08,07,03,7.50
2016,04,08,07,04,7.50
2016,04,08,07,05,7.50
2016,04,08,07,06,7.60
2016,04,08,07,07,7.60
2016,04,08,07,08,7.60
2016,04,08,07,09,7.70
2016,04,08,07,10,7.70
2016,04,08,07,11,7.70
2016,04,08,07,12,7.70
2016,04,08,07,13,7.70
2016,04,08,07,14,7.70
2016,04,08,07,15,7.80
2016,04,08,07,16,7.80
2016,04,08,07,17,7.80
2016,04,08,07,18,7.80
2016,04,08,07,19,7.80
2016,04,08,07,20,7.80
2016,04,08,07,21,7.80
2016,04,08,07,22,7.80
2016,04,08,07,23,7.80
2016,04,08,07,24,7.80
2016,04,08,07,25,7.80
2016,04,08,07,26,7.80
2016,04,08,07,27,7.80
2016,04,08,07,28,7.80
2016,04,08,07,29,7.80
2016,04,08,07,30,7.80
2016,04,08,07,31,7.80
2016,04,08,07,32,7.80
2016,04,08,07,33,7.80
2016,04,08,07,34,7.90
2016,04,08,07,35,7.90
2016,04,08,07,36,7.90
2016,04,08,07,37,8.00
2016,04,08,07,38,8.00
2016,04,08,07,39,8.10
2016,04,08,07,40,8.20
2016,04,08,07,41,8.20
2016,04,08,07,42,8.20
2016,04,08,07,43,8.30
2016,04,08,07,44,8.30
2016,04,08,07,45,8.40
2016,04,08,07,46,8.50
2016,04,08,07,47,8.60
2016,04,08,07,48,8.60
2016,04,08,07,49,8.70
2016,04,08,07,50,8.80
2016,04,08,07,51,8.90
2016,04,08,07,52,9.00
2016,04,08,07,53,9.00
2016,04,08,07,54,9.10
2016,04,08,07,55,9.20
2016,04,08,07,56,9.30
2016,04,08,07,57,9.40
2016,04,08,07,58,9.50
2016,04,08,07,59,9.60
2016,04,08,08,00,9.70
2016,04,08,08,01,9.70
2016,04,08,08,02,9.80
2016,04,08,08,03,9.90
2016,04,08,08,04,10.00
2016,04,08,08,05,10.10
2016,04,08,08,06,10.20
2016,04,08,08,07,10.30
2016,04,08,08,08,10.40
2016,04,08,08,09,10.60
2016,04,08,08,10,10.70
2016,04,08,08,11,10.90
2016,04,08,08,12,11.00
2016,04,08,08,13,11.10
2016,04,08,08,14,11.20
2016,04,08,08,15,11.30
2016,04,08,08,16,11.40
2016,04,08,08,17,11.50
2016,04,08,08,18,11.60
2016,04,08,08,19,11.80
2016,04,08,08,20,11.80
2016,04,08,08,21,11.90
2016,04,08,08,22,12.00
2016,04,08,08,23,12.10
2016,04,08,08,24,12.20
2016,04,08,08,25,12.30
2016,04,08,08,26,12.30
2016,04,08,08,27,12.40
2016,04,08,08,28,12.50
2016,04,08,08,29,12.70
2016,04,08,08,30,12.80
2016,04,08,08,31,12.90
2016,04,08,08,32,13.10
2016,04,08,08,33,13.30
2016,04,08,08,34,13.40
2016,04,08,08,35,13.60
2016,04,08,08,36,13.60
2016,04,08,08,37,13.70
2016,04,08,08,38,13.80
2016,04,08,08,39,13.80
2016,04,08,08,40,13.80
2016,04,08,08,41,13.90
2016,04,08,08,42,13.90
2016,04,08,08,43,14.00
2016,04,08,08,44,14.10
2016,04,08,08,45,14.20
2016,04,08,08,46,14.20
2016,04,08,08,47,14.20
2016,04,08,08,48,14.30
2016,04,08,08,49,14.30
2016,04,08,08,50,14.40
2016,04,08,08,51,14.40
2016,04,08,08,52,14.40
2016,04,08,08,53,14.50
2016,04,08,08,54,14.50
2016,04,08,08,55,14.60
2016,04,08,08,56,14.60
2016,04,08,08,57,14.70
2016,04,08,08,58,14.80
2016,04,08,08,59,14.80
2016,04,08,09,00,14.90
2016,04,08,09,01,14.90
2016,04,08,09,02,15.00
2016,04,08,09,03,15.10
2016,04,08,09,04,15.10
2016,04,08,09,05,15.10
2016,04,08,09,06,15.20
2016,04,08,09,07,15.20
2016,04,08,09,08,15.30
2016,04,08,09,09,15.30
2016,04,08,09,10,15.20
2016,04,08,09,11,15.30
2016,04,08,09,12,15.30
2016,04,08,09,13,15.30
2016,04,08,09,14,15.30
2016,04,08,09,15,15.30
2016,04,08,09,16,15.30
2016,04,08,09,17,15.30
2016,04,08,09,18,15.30
2016,04,08,09,19,15.30
2016,04,08,09,20,15.40
2016,04,08,09,21,15.40
2016,04,08,09,22,15.40
2016,04,08,09,23,15.40
2016,04,08,09,24,15.40
2016,04,08,09,25,15.40
2016,04,08,09,26,15.40
2016,04,08,09,27,15.40
2016,04,08,09,28,15.30
2016,04,08,09,29,15.30
2016,04,08,09,30,15.30
2016,04,08,09,31,15.30
2016,04,08,09,32,15.30
2016,04,08,09,33,15.30
2016,04,08,09,34,15.30
2016,04,08,09,35,15.30
2016,04,08,09,36,15.40
2016,04,08,09,37,15.40
2016,04,08,09,38,15.40
2016,04,08,09,39,15.50
2016,04,08,09,40,15.50
2016,04,08,09,41,15.50
2016,04,08,09,42,15.60
2016,04,08,09,43,15.60
2016,04,08,09,44,15.60
2016,04,08,09,45,15.60
2016,04,08,09,46,15.60
2016,04,08,09,47,15.60
2016,04,08,09,48,15.60
2016,04,08,09,49,15.70
2016,04,08,09,50,15.60
2016,04,08,09,51,15.60
2016,04,08,09,52,15.60
2016,04,08,09,53,15.60
2016,04,08,09,54,15.60
2016,04,08,09,55,15.60
2016,04,08,09,56,15.50
2016,04,08,09,57,15.50
2016,04,08,09,58,15.50
2016,04,08,09,59,15.40
2016,04,08,10,00,15.40
2016,04,08,10,01,15.40
2016,04,08,10,02,15.50
2016,04,08,10,03,15.60
2016,04,08,10,04,15.60
2016,04,08,10,05,15.60
2016,04,08,10,06,15.60
2016,04,08,10,07,15.60
2016,04,08,10,08,15.70
2016,04,08,10,09,15.70
2016,04,08,10,10,15.80
2016,04,08,10,11,15.80
2016,04,08,10,12,16.00
2016,04,08,10,13,16.10
2016,04,08,10,14,16.10
2016,04,08,10,15,16.20
2016,04,08,10,16,16.30
2016,04,08,10,17,16.40
2016,04,08,10,18,16.60
2016,04,08,10,19,16.70
2016,04,08,10,20,16.70
2016,04,08,10,21,16.70
2016,04,08,10,22,16.70
2016,04,08,10,23,16.80
2016,04,08,10,24,16.90
2016,04,08,10,25,17.00
2016,04,08,10,26,17.00
2016,04,08,10,27,17.10
2016,04,08,10,28,17.30
2016,04,08,10,29,17.40
2016,04,08,10,30,17.50
2016,04,08,10,31,17.60
2016,04,08,10,32,17.70
2016,04,08,10,33,17.70
2016,04,08,10,34,17.80
2016,04,08,10,35,17.90
2016,04,08,10,36,18.00
2016,04,08,10,37,18.10
2016,04,08,10,38,18.20
2016,04,08,10,39,18.20
2016,04,08,10,40,18.10
2016,04,08,10,41,18.10
2016,04,08,10,42,18.10
2016,04,08,10,43,18.10
2016,04,08,10,44,18.10
2016,04,08,10,45,18.10
2016,04,08,10,46,18.10
2016,04,08,10,47,18.10
2016,04,08,10,48,18.20
2016,04,08,10,49,18.20
2016,04,08,10,50,18.20
2016,04,08,10,51,18.20
2016,04,08,10,52,18.20
2016,04,08,10,53,18.20
2016,04,08,10,54,18.20
2016,04,08,10,55,18.10
2016,04,08,10,56,18.00
2016,04,08,10,57,17.90
2016,04,08,10,58,18.00
2016,04,08,10,59,18.10
2016,04,08,11,00,18.10
2016,04,08,11,01,18.10
2016,04,08,11,02,18.20
2016,04,08,11,03,18.20
2016,04,08,11,04,18.20
2016,04,08,11,05,18.10
2016,04,08,11,06,18.10
2016,04,08,11,07,18.10
2016,04,08,11,08,18.10
2016,04,08,11,09,18.20
2016,04,08,11,10,18.20
2016,04,08,11,11,18.20
2016,04,08,11,12,18.20
2016,04,08,11,13,18.20
2016,04,08,11,14,18.20
2016,04,08,11,15,18.20
2016,04,08,11,16,18.20
2016,04,08,11,17,18.20
2016,04,08,11,18,18.10
2016,04,08,11,19,18.10
2016,04,08,11,20,18.10
2016,04,08,11,21,18.10
2016,04,08,11,22,18.10
2016,04,08,11,23,18.20
2016,04,08,11,24,18.20
2016,04,08,11,25,18.40
2016,04,08,11,26,18.50
2016,04,08,11,27,18.60
2016,04,08,11,28,18.70
2016,04,08,11,29,18.80
2016,04,08,11,30,18.90
2016,04,08,11,31,19.10
2016,04,08,11,32,19.20
2016,04,08,11,33,19.30
2016,04,08,11,34,19.40
2016,04,08,11,35,19.60
2016,04,08,11,36,19.70
2016,04,08,11,37,19.70
2016,04,08,11,38,19.70
2016,04,08,11,39,19.60
2016,04,08,11,40,19.60
2016,04,08,11,41,19.50
2016,04,08,11,42,19.50
2016,04,08,11,43,19.60
2016,04,08,11,44,19.70
2016,04,08,11,45,19.90
2016,04,08,11,46,19.90
2016,04,08,11,47,20.00
2016,04,08,11,48,20.10
2016,04,08,11,49,20.30
2016,04,08,11,50,20.40
2016,04,08,11,51,20.50
2016,04,08,11,52,20.60
2016,04,08,11,53,20.80
2016,04,08,11,54,20.90
2016,04,08,11,55,21.00
2016,04,08,11,56,21.20
2016,04,08,11,57,21.30
2016,04,08,11,58,21.50
2016,04,08,11,59,21.60
2016,04,08,12,00,21.60
2016,04,08,12,01,21.70
2016,04,08,12,02,21.80
2016,04,08,12,03,21.80
2016,04,08,12,04,21.80
2016,04,08,12,05,21.90
2016,04,08,12,06,21.90
2016,04,08,12,07,21.90
2016,04,08,12,08,22.00
2016,04,08,12,09,22.00
2016,04,08,12,10,22.10
2016,04,08,12,11,22.20
2016,04,08,12,12,22.30
2016,04,08,12,13,22.40
2016,04,08,12,14,22.50
2016,04,08,12,15,22.60
2016,04,08,12,16,22.60
2016,04,08,12,17,22.70
2016,04,08,12,18,22.80
2016,04,08,12,19,22.80
2016,04,08,12,20,22.80
2016,04,08,12,21,22.80
2016,04,08,12,22,22.90
2016,04,08,12,23,22.90
2016,04,08,12,24,22.90
2016,04,08,12,25,22.90
2016,04,08,12,26,22.80
2016,04,08,12,27,22.70
2016,04,08,12,28,22.70
2016,04,08,12,29,22.60
2016,04,08,12,30,22.50
2016,04,08,12,31,22.50
2016,04,08,12,32,22.40
2016,04,08,12,33,22.30
2016,04,08,12,34,22.30
2016,04,08,12,35,22.20
2016,04,08,12,36,22.00
2016,04,08,12,37,22.00
2016,04,08,12,38,22.00
2016,04,08,12,39,21.90
2016,04,08,12,40,21.90
2016,04,08,12,41,21.80
2016,04,08,12,42,21.80
2016,04,08,12,43,21.90
2016,04,08,12,44,21.90
2016,04,08,12,45,22.00
2016,04,08,12,46,22.10
2016,04,08,12,47,22.20
2016,04,08,12,48,22.30
2016,04,08,12,49,22.50
2016,04,08,12,50,22.60
2016,04,08,12,51,22.70
2016,04,08,12,52,22.80
2016,04,08,12,53,22.90
2016,04,08,12,54,22.90
2016,04,08,12,55,22.90
2016,04,08,12,56,22.90
2016,04,08,12,57,23.00
2016,04,08,12,58,23.10
2016,04,08,12,59,23.10
2016,04,08,13,00,23.10
2016,04,08,13,01,23.00
2016,04,08,13,02,22.90
2016,04,08,13,03,22.80
2016,04,08,13,04,22.80
2016,04,08,13,05,22.70
2016,04,08,13,06,22.60
2016,04,08,13,07,22.60
2016,04,08,13,08,22.60
2016,04,08,13,09,22.50
2016,04,08,13,10,22.50
2016,04,08,13,11,22.40
2016,04,08,13,12,22.30
2016,04,08,13,13,22.20
2016,04,08,13,14,22.00
2016,04,08,13,15,22.00
2016,04,08,13,16,21.80
2016,04,08,13,17,21.80
2016,04,08,13,18,21.60
2016,04,08,13,19,21.60
2016,04,08,13,20,21.40
2016,04,08,13,21,21.20
2016,04,08,13,22,21.10
2016,04,08,13,23,21.00
2016,04,08,13,24,20.90
2016,04,08,13,25,20.80
2016,04,08,13,26,20.80
2016,04,08,13,27,20.80
2016,04,08,13,28,20.80
2016,04,08,13,29,20.90
2016,04,08,13,30,20.90
2016,04,08,13,31,21.00
2016,04,08,13,32,21.00
2016,04,08,13,33,21.00
2016,04,08,13,34,21.10
2016,04,08,13,35,21.10
2016,04,08,13,36,21.10
2016,04,08,13,37,21.20
2016,04,08,13,38,21.20
2016,04,08,13,39,21.30
2016,04,08,13,40,21.20
2016,04,08,13,41,21.10
2016,04,08,13,42,21.10
2016,04,08,13,43,21.00
2016,04,08,13,44,21.00
2016,04,08,13,45,21.00
2016,04,08,13,46,20.90
2016,04,08,13,47,20.90
2016,04,08,13,48,20.80
2016,04,08,13,49,20.80
2016,04,08,13,50,20.80
2016,04,08,13,51,20.80
2016,04,08,13,52,20.70
2016,04,08,13,53,20.70
2016,04,08,13,54,20.60
2016,04,08,13,55,20.50
2016,04,08,13,56,20.30
2016,04,08,13,57,20.20
2016,04,08,13,58,20.00
2016,04,08,13,59,19.90
2016,04,08,14,00,19.90
2016,04,08,14,01,19.80
2016,04,08,14,02,19.80
2016,04,08,14,03,19.80
2016,04,08,14,04,19.80
2016,04,08,14,05,19.80
2016,04,08,14,06,19.90
2016,04,08,14,07,20.00
2016,04,08,14,08,20.10
2016,04,08,14,09,20.20
2016,04,08,14,10,20.20
2016,04,08,14,11,20.20
2016,04,08,14,12,20.30
2016,04,08,14,13,20.30
2016,04,08,14,14,20.40
2016,04,08,14,15,20.40
2016,04,08,14,16,20.50
2016,04,08,14,17,20.60
2016,04,08,14,18,20.60
2016,04,08,14,19,20.70
2016,04,08,14,20,20.70
2016,04,08,14,21,20.80
2016,04,08,14,22,20.80
2016,04,08,14,23,20.80
2016,04,08,14,24,20.70
2016,04,08,14,25,20.80
2016,04,08,14,26,20.70
2016,04,08,14,27,20.70
2016,04,08,14,28,20.60
2016,04,08,14,29,20.50
2016,04,08,14,30,20.40
2016,04,08,14,31,20.30
2016,04,08,14,32,20.30
2016,04,08,14,33,20.30
2016,04,08,14,34,20.30
2016,04,08,14,35,20.40
2016,04,08,14,36,20.40
2016,04,08,14,37,20.40
2016,04,08,14,38,20.50
2016,04,08,14,39,20.60
2016,04,08,14,40,20.60
2016,04,08,14,41,20.70
2016,04,08,14,42,20.80
2016,04,08,14,43,20.90
2016,04,08,14,44,20.90
2016,04,08,14,45,21.00
2016,04,08,14,46,21.00
2016,04,08,14,47,21.10
2016,04,08,14,48,21.20
2016,04,08,14,49,21.30
2016,04,08,14,50,21.30
2016,04,08,14,51,21.30
2016,04,08,14,52,21.30
2016,04,08,14,53,21.30
2016,04,08,14,54,21.30
2016,04,08,14,55,21.30
2016,04,08,14,56,21.30
2016,04,08,14,57,21.30
2016,04,08,14,58,21.30
2016,04,08,14,59,21.40
2016,04,08,15,00,21.50
2016,04,08,15,01,21.60
2016,04,08,15,02,21.60
2016,04,08,15,03,21.80
2016,04,08,15,04,21.90
2016,04,08,15,05,22.00
2016,04,08,15,06,22.10
2016,04,08,15,07,22.20
2016,04,08,15,08,22.30
2016,04,08,15,09,22.40
2016,04,08,15,10,22.60
2016,04,08,15,11,22.70
2016,04,08,15,12,22.80
2016,04,08,15,13,22.90
2016,04,08,15,14,22.90
2016,04,08,15,15,22.90
2016,04,08,15,16,22.90
2016,04,08,15,17,22.90
2016,04,08,15,18,22.90
2016,04,08,15,19,22.80
2016,04,08,15,20,22.80
2016,04,08,15,21,22.70
2016,04,08,15,22,22.50
2016,04,08,15,23,22.50
2016,04,08,15,24,22.50
2016,04,08,15,25,22.50
2016,04,08,15,26,22.50
2016,04,08,15,27,22.50
2016,04,08,15,28,22.30
2016,04,08,15,29,22.20
2016,04,08,15,30,22.10
2016,04,08,15,31,22.00
2016,04,08,15,32,21.90
2016,04,08,15,33,21.70
2016,04,08,15,34,21.50
2016,04,08,15,35,21.40
2016,04,08,15,36,21.30
2016,04,08,15,37,21.30
2016,04,08,15,38,21.20
2016,04,08,15,39,21.10
2016,04,08,15,40,21.00
2016,04,08,15,41,21.00
2016,04,08,15,42,20.90
2016,04,08,15,43,21.00
2016,04,08,15,44,21.00
2016,04,08,15,45,21.10
2016,04,08,15,46,21.10
2016,04,08,15,47,21.20
2016,04,08,15,48,21.30
2016,04,08,15,49,21.30
2016,04,08,15,50,21.30
2016,04,08,15,51,21.30
2016,04,08,15,52,21.30
2016,04,08,15,53,21.40
2016,04,08,15,54,21.50
2016,04,08,15,55,21.60
2016,04,08,15,56,21.60
2016,04,08,15,57,21.60
2016,04,08,15,58,21.60
2016,04,08,15,59,21.60
2016,04,08,16,00,21.50
2016,04,08,16,01,21.40
2016,04,08,16,02,21.40
2016,04,08,16,03,21.50
2016,04,08,16,04,21.60
2016,04,08,16,05,21.60
2016,04,08,16,06,21.60
2016,04,08,16,07,21.60
2016,04,08,16,08,21.50
2016,04,08,16,09,21.40
2016,04,08,16,10,21.20
2016,04,08,16,11,21.20
2016,04,08,16,12,21.10
2016,04,08,16,13,21.00
2016,04,08,16,14,21.00
2016,04,08,16,15,21.00
2016,04,08,16,16,21.00
2016,04,08,16,17,21.00
2016,04,08,16,18,21.00
2016,04,08,16,19,21.00
2016,04,08,16,20,21.00
2016,04,08,16,21,21.00
2016,04,08,16,22,21.00
2016,04,08,16,23,21.10
2016,04,08,16,24,21.10
2016,04,08,16,25,21.20
2016,04,08,16,26,21.30
2016,04,08,16,27,21.30
2016,04,08,16,28,21.30
2016,04,08,16,29,21.30
2016,04,08,16,30,21.40
2016,04,08,16,31,21.40
2016,04,08,16,32,21.40
2016,04,08,16,33,21.30
2016,04,08,16,34,21.30
2016,04,08,16,35,21.30
2016,04,08,16,36,21.30
2016,04,08,16,37,21.30
2016,04,08,16,38,21.30
2016,04,08,16,39,21.20
2016,04,08,16,40,21.10
2016,04,08,16,41,21.10
2016,04,08,16,42,21.10
2016,04,08,16,43,21.10
2016,04,08,16,44,21.10
2016,04,08,16,45,21.10
2016,04,08,16,46,21.20
2016,04,08,16,47,21.20
2016,04,08,16,48,21.30
2016,04,08,16,49,21.20
2016,04,08,16,50,21.20
2016,04,08,16,51,21.20
2016,04,08,16,52,21.10
2016,04,08,16,53,21.10
2016,04,08,16,54,21.10
2016,04,08,16,55,21.10
2016,04,08,16,56,21.00
2016,04,08,16,57,21.00
2016,04,08,16,58,21.10
2016,04,08,16,59,21.10
2016,04,08,17,00,21.20
2016,04,08,17,01,21.10
2016,04,08,17,02,21.00
2016,04,08,17,03,21.00
2016,04,08,17,04,20.90
2016,04,08,17,05,20.80
2016,04,08,17,06,20.80
2016,04,08,17,07,20.80
2016,04,08,17,08,20.70
2016,04,08,17,09,20.80
2016,04,08,17,10,20.80
2016,04,08,17,11,20.80
2016,04,08,17,12,20.80
2016,04,08,17,13,20.70
2016,04,08,17,14,20.60
2016,04,08,17,15,20.60
2016,04,08,17,16,20.60
2016,04,08,17,17,20.60
2016,04,08,17,18,20.60
2016,04,08,17,19,20.60
2016,04,08,17,20,20.60
2016,04,08,17,21,20.60
2016,04,08,17,22,20.60
2016,04,08,17,23,20.60
2016,04,08,17,24,20.60
2016,04,08,17,25,20.60
2016,04,08,17,26,20.60
2016,04,08,17,27,20.60
2016,04,08,17,28,20.60
2016,04,08,17,29,20.50
2016,04,08,17,30,20.50
2016,04,08,17,31,20.50
2016,04,08,17,32,20.40
2016,04,08,17,33,20.40
2016,04,08,17,34,20.20
2016,04,08,17,35,20.10
2016,04,08,17,36,19.90